Regional Weather Roundup
Issued by NWS State College, PA

Home | Current Version | Previous Version | Text Only | Print | Product List | Glossary Off
Versions: 1 2 3 4 5 6 7 8 9 10 11 12 13 14 15 16 17 18 19 20 21 22 23 24 25 26 27 28 29 30 31 32 33 34 35 36 37 38 39 40 41 42 43 44 45 46 47 48 49 50

000
ASUS41 KCTP 121403
RWRCTP

REGIONAL WEATHER ROUNDUP
NATIONAL WEATHER SERVICE STATE COLLEGE PA
1000 AM EDT SAT JUL 12 2014

Note: "fair" indicates few or no clouds below 12,000 feet with no
significant weather and/or obstructions to visibility.

* = STATION THAT DOES NOT REPORT PRECIPITATION /E.G. RAIN...SNOW...ETC/
    THUNDER OR FOG.

PAZ002>004-007>009-013>016-020>023-029>032-121500-
WESTERN PENNSYLVANIA

CITY           SKY/WX    TMP DP  RH WIND       PRES   REMARKS
ERIE           SUNNY     78  59  51 S6        30.16S
MEADVILLE      MOSUNNY   73  62  68 S5        30.20S
FRANKLIN*      MOSUNNY   73  63  68 S3        30.22S
NEW CASTLE       N/A     77  66  68 CALM      30.20S
BEAVER COUNTY  NOT AVBL
BUTLER*        SUNNY     79  61  53 S5        30.23R
PITTSBURGH INT MOSUNNY   77  61  57 CALM      30.20S
PITTSBURGH     SUNNY     77  58  51 VRB3      30.20S
INDIANA*       SUNNY     77  61  57 SW7       30.26R
LATROBE        MOSUNNY   77  66  69 CALM      30.22S
WASHINGTON CO* SUNNY     77  63  61 S6        30.22S
$$

PAZ004>006-010>012-017>019-024>028-033>037-041-042-045-046-049>053-121500-
CENTRAL PENNSYLVANIA

CITY           SKY/WX    TMP DP  RH WIND       PRES   REMARKS
BRADFORD       MOSUNNY   71  61  70 VRB3      30.23S
DUBOIS         SUNNY     75  63  66 W7        30.22S
CLEARFIELD     SUNNY     73  63  70 VRB3      30.22F
JOHNSTOWN      SUNNY     71  61  70 SW5       30.25S
ALTOONA        SUNNY     75  66  73 S6        30.23F
STATE COLLEGE  SUNNY     73  64  73 CALM      30.22F
WILLIAMSPORT   SUNNY     75  64  68 CALM      30.19F
SELINSGROVE    MOSUNNY   77  69  76 VRB7      30.21F
FT INDIANTOWN  NOT AVBL
CAPITAL CITY   CLOUDY    76  69  79 E7        30.20F
HARRISBURG     PTSUNNY   79  69  71 VRB5      30.20F
YORK           MOSUNNY   78  70  76 S6        30.21F
$$

PAZ038>040-043-044-047-048-054-055-060>062-067>071-121500-
EASTERN PENNSYLVANIA

CITY           SKY/WX    TMP DP  RH WIND       PRES   REMARKS
SCRANTON       PTSUNNY   76  65  68 VRB3      30.22F
MOUNT POCONO   MOSUNNY   73  63  70 SW7       30.27F
ALLENTOWN      MOSUNNY   77  64  64 CALM      30.23F
QUAKERTOWN*    MOSUNNY   77  64  65 SW6       30.24F
READING        MOSUNNY   79  68  69 VRB5      30.21F
LANCASTER      MOSUNNY   76  70  82 S6        30.22F
COATESVILLE    FAIR      75  72  88 CALM      30.24F
POTTSTOWN      MOSUNNY   76  66  71 SW3       30.24F
BLUE BELL      MOSUNNY   81  68  65 CALM      30.22F
DOYLESTOWN     MOSUNNY   76  66  71 CALM      30.22F
WILLOW GROVE   NOT AVBL
NORTH PHILA    SUNNY     81  63  54 VRB3      30.24F
PHILADELPHIA   MOSUNNY   79  64  60 S5        30.22F
$$



USA.gov is the U.S. government's official web portal to all federal, state and local government web resources and services.